Location: NJAA Observatory
(40.6819°N, 74.8979°W)
Time: 15:01:18
(UTC-05:00)

Daily predictions for brighter satellites

Satellite Brightness Start Highest point End
(mag) Time Altitude Azimuth Time Altitude Azimuth Time Altitude Azimuth
Cosmos 1908 Rocket 4.1 18:08:37 10° SSE 18:12:44 38° E 18:16:52 10° NNE
Ariane Rocket 4.4 18:08:13 10° S 18:13:06 45° W 18:18:01 10° NNW
YAOGAN 1 3.1 18:10:28 10° S 18:14:45 66° WSW 18:19:04 10° NNW
Cosmos 1733 Rocket 3.2 18:12:59 10° SSW 18:17:17 77° W 18:21:38 10° N
FENGYUN 3A 3.7 18:13:53 10° SSE 18:19:17 89° WSW 18:24:45 10° NNW
COSMOS 2455 4.2 18:20:06 10° SE 18:23:51 17° ESE 18:27:37 10° ENE
Cosmos 1633 2.5 18:22:09 10° S 18:25:39 60° E 18:29:11 10° NNE
Iridium 4 Rocket 3.6 18:21:47 10° NNE 18:26:18 40° E 18:30:27 10° SSE
Cosmos 158 Rocket 3.8 18:22:05 10° SSW 18:26:58 79° ESE 18:31:51 10° NNE
Cosmos 2227 Rocket 3.4 18:22:12 10° SW 18:27:36 45° WNW 18:33:01 10° NNE
ATLAS 3B R/B 4.5 18:22:00 10° W 18:28:01 28° NW 18:33:52 10° NNE
Cosmos 2237 Rocket 3.6 18:23:47 10° NW 18:29:03 42° WSW 18:34:17 10° S
SKYMED 2 4.4 18:26:59 10° N 18:31:14 55° WNW 18:35:27 10° SSW
OAO 2 Rocket 4.1 18:26:43 10° WSW 18:31:21 40° S 18:35:29 12° ESE
SL-16 R/B 2.2 18:29:01 10° NNW 18:34:43 86° ENE 18:40:22 10° SSE
Cosmos 1452 Rocket 3.7 18:31:02 10° NNW 18:36:19 78° WSW 18:41:32 10° SSE
Cosmos 1048 Rocket 4.0 18:34:24 10° S 18:39:42 69° ESE 18:44:57 10° NNE
Cosmos 1975 Rocket 3.7 18:35:38 10° N 18:39:43 35° ENE 18:43:48 10° SE
Cosmos 2297 Rocket 3.6 18:35:54 10° SW 18:41:12 40° WNW 18:46:33 10° N
Tiangong 2 3.4 18:40:34 10° W 18:43:05 22° SSW 18:45:36 10° SSE
ERS-2 2.2 18:39:41 10° SSE 18:43:17 53° ENE 18:46:53 10° N
FREGAT/IRIS 2.7 18:40:44 10° SSE 18:43:36 50° ENE 18:46:30 10° N
H-2A R/B 2.7 18:40:33 10° SSE 18:44:27 84° ENE 18:48:22 10° N
SPOT 3 Rocket 3.8 18:42:22 10° S 18:47:33 73° WSW 18:52:47 10° NNW
Cosmos 44 Rocket 3.6 18:43:41 10° NW 18:48:43 73° WSW 18:53:50 10° SSE
SJ-6B 3.2 18:45:14 10° SE 18:48:44 37° ENE 18:52:19 10° N
Cosmos 1513 Rocket 4.5 18:45:10 10° N 18:51:33 81° E 18:57:46 10° S
Resurs 01 Rocket 2.8 18:51:54 20° ENE 18:52:26 21° ENE 18:55:45 10° NNE
Cosmos 1603 4.1 18:48:05 10° N 18:53:25 41° ENE 18:57:47 15° SE
ATLAS CENTAUR R/B 3.3 18:51:21 10° N 18:53:46 15° NE 18:54:02 15° NE
CZ-4C R/B 3.8 18:49:00 10° NNW 18:54:55 28° NE 18:58:39 19° E
Cosmos 1420 Rocket 4.5 18:49:41 10° NNW 18:54:56 66° WSW 19:00:10 10° S
SL-8 R/B 4.5 18:54:14 10° W 18:58:49 45° NNW 19:02:11 17° NE
Cosmos 1378 Rocket 4.0 18:56:18 10° NNW 19:00:41 66° W 19:05:04 10° S
ARGOS Delta rocket 4.0 18:58:03 10° NNE 19:02:41 47° E 19:07:04 10° S
Okean 1 3.3 19:00:14 10° N 19:04:15 84° W 19:08:12 10° S
CZ-2D R/B 3.4 19:02:31 10° SSE 19:06:18 52° ENE 19:10:06 10° N
Cosmos 2263 Rocket 2.9 19:03:54 10° SSE 19:08:34 28° ESE 19:09:12 28° E
SeaSat 1 2.7 19:07:33 24° ESE 19:10:10 46° ENE 19:14:53 10° NNW
Cosmos 1782 Rocket 3.6 19:06:13 10° S 19:10:40 85° W 19:15:05 10° N
USA 215 3.3 19:08:39 17° NE 19:13:50 61° SE 19:20:16 10° SSW
Tsikada Rocket 4.0 19:08:53 10° S 19:15:17 78° E 19:21:43 10° N
Cosmos 1602 3.6 19:11:41 10° S 19:15:35 89° W 19:19:29 10° N
USA 186 3.7 19:21:16 20° NNE 19:21:16 20° NNE 19:22:29 10° N
CZ-3C R/B 4.1 19:20:04 10° S 19:23:29 14° SE 19:24:32 14° SE
CZ-3 Stage 3 3.9 19:22:44 10° SW 19:24:21 13° SSW 19:25:21 11° S
Envisat 2.9 19:19:45 10° SSE 19:24:49 76° ENE 19:29:54 10° N
Meteor 2-4 Rocket 3.6 19:26:22 10° N 19:32:08 67° E 19:36:06 20° SSE
Meteor 1-4 Rocket 2.4 19:29:21 10° S 19:32:51 84° W 19:33:28 59° N
Cosmos 2227 4.3 19:27:35 10° SSW 19:33:18 75° WNW 19:39:02 10° NNE
Okean 2 Rocket 3.1 19:29:35 10° S 19:33:58 78° W 19:38:24 10° N
Meteor 1-5 Rocket 4.4 19:28:37 10° S 19:34:17 53° E 19:40:05 10° NNE
Cosmos 1437 Rocket 4.3 19:32:37 10° SW 19:36:25 38° WNW 19:40:17 10° N
Meteor 1-19 Rocket 4.3 19:31:11 10° NNW 19:36:43 78° W 19:42:16 10° S
Cosmos 494 Rocket 3.8 19:31:39 10° SSW 19:36:53 84° ESE 19:42:05 10° NNE
Thor Agena Rocket 3.6 19:32:43 10° N 19:37:48 76° WNW 19:42:49 10° SSW
Cosmos 1110 Rocket 3.9 19:36:00 10° NNW 19:41:18 88° WSW 19:43:58 31° SSE
Meteor 1-11 Rocket 3.6 19:37:40 10° S 19:43:15 90° E 19:48:59 10° N
USA 267 3.9 19:45:34 33° NE 19:46:59 37° NNE 19:52:52 10° NW
CENTAUR R/B 4.0 19:41:51 10° WSW 19:47:27 35° NW 19:53:47 10° NNE
Gbstr 26 Del rocket 3.3 19:48:15 10° WSW 19:51:32 54° WNW 19:51:32 54° WNW
Cosmos 2279 Rocket 4.3 19:49:36 10° N 19:54:40 46° NE 19:54:40 46° NE
Cosmos 1943 3.0 19:53:24 10° NNW 19:59:06 78° ENE 19:59:20 77° E
Cosmos 1939 Rocket 4.1 20:02:39 36° NNW 20:02:39 36° NNW 20:05:10 10° NNW
H-2A R/B 4.4 20:09:18 12° NNE 20:09:18 12° NNE 20:09:46 10° NNE
COSMOS 2455 3.0 20:03:06 10° SW 20:09:05 73° WNW 20:11:40 36° NNE
Resurs 1-3 4.4 20:12:36 48° WNW 20:12:36 48° WNW 20:16:14 10° NNW
Spot 2 Rocket 3.7 20:15:08 65° NW 20:15:08 65° NW 20:19:39 10° NNW
OAO 2 Rocket 4.5 20:11:05 10° WSW 20:14:27 34° SW 20:14:27 34° SW
Cosmos 1634 Rocket 4.2 20:09:51 10° NNW 20:15:58 67° W 20:19:12 29° SSW
Geosat 4.3 20:17:27 63° W 20:17:27 63° W 20:21:56 10° SW
Meteor 1-23 Rocket 4.4 20:17:48 10° NNW 20:23:35 72° W 20:23:35 72° W
Cosmos 2251 Rocket 4.5 20:22:20 10° SSW 20:25:57 41° WSW 20:25:57 41° WSW
Resurs 01 Rocket 3.2 20:29:28 33° WNW 20:29:28 33° WNW 20:32:46 10° NNW
ATLAS CENTAUR R/B 3.7 20:28:55 10° NW 20:30:20 21° NW 20:30:20 21° NW
CZ-4C R/B 2.9 20:36:57 10° NW 20:43:53 80° WNW 20:43:53 80° WNW
SeaSat 1 4.4 20:47:22 23° WSW 20:47:50 23° WSW 20:51:43 10° NW
Cosmos 2263 Rocket 3.5 20:47:05 10° SW 20:51:04 35° W 20:51:04 35° W
USA 215 4.0 20:56:01 43° NNW 20:56:41 44° NNW 21:02:47 10° W
